Tracking 30990 objects as of 8-Jul-2025
HD Live streaming from Space Station
objects crossing your sky now

GLOBALSTAR M051

Track GLOBALSTAR M051 now!
10-day predictions
GLOBALSTAR M051 is classified as:


NORAD ID: 25853
Int'l Code: 1999-037C
Perigee: 1,957.3 km
Apogee: 1,957.9 km
Inclination: 52.0 °
Period: 126.1 minutes
Semi major axis: 8328 km
RCS: 2.464 m2 (large)
Launch date: July 10, 1999
Source: Globalstar (GLOB)
Launch site: AIR FORCE EASTERN TEST RANGE (AFETR)
Your satellite tracking list
Your tracking list is empty




NASA's NSSDC Master Catalog

Two Line Element Set (TLE):
1 25853U 99037C   25189.14523623 -.00000075  00000-0 -74977-4 0  9994
2 25853  51.9823 350.3339 0000363 159.3469 200.7356 11.42204690134806
Source of the keplerian elements: AFSPC